Location: Allie Creek
(37.5926°N, 89.8526°W)
Time: 04:52:32
(UTC+00:00)

Daily predictions for brighter satellites

Satellite Brightness Start Highest point End
(mag) Time Altitude Azimuth Time Altitude Azimuth Time Altitude Azimuth
Cosmos 1048 Rocket 4.1 00:07:11 10° S 00:12:28 67° ESE 00:17:49 10° NNE
NOSS 2-3 (D) 3.8 00:13:19 10° S 00:16:44 34° ESE 00:20:13 10° NE
Meteor 1-11 Rocket 4.3 00:14:39 10° SSW 00:20:06 63° W 00:25:39 10° N
SKYMED 2 4.1 00:17:10 10° N 00:21:29 66° WNW 00:25:46 10° SSW
IGS 5A 4.3 00:18:34 10° SE 00:22:09 30° ENE 00:25:45 10° N
Cosmos 1844 3.9 00:17:48 10° NNW 00:23:30 53° ENE 00:29:06 10° SE
Cosmos 1842 3.2 00:20:31 10° N 00:24:20 85° W 00:28:06 10° S
Cosmos 1975 3.4 00:21:46 10° SSE 00:25:13 31° E 00:28:41 10° NNE
USA 215 3.8 00:19:40 10° ENE 00:25:37 36° SE 00:31:31 10° SSW
Lacrosse 5 4.4 00:23:58 10° NW 00:26:14 13° NNW 00:28:32 10° N
Cosmos 2360 Rocket 2.4 00:24:19 10° SSW 00:29:56 77° WNW 00:35:37 10° NNE
CZ-4 R/B 2.7 00:28:17 10° ESE 00:31:05 19° ENE 00:33:53 10° NNE
Cosmos 2333 4.1 00:25:48 10° SSW 00:31:21 71° ESE 00:36:57 10° NNE
Cosmos 1666 Rocket 3.8 00:27:41 10° S 00:32:08 76° W 00:36:37 10° N
Cosmos 2333 Rocket 2.2 00:27:24 10° SSW 00:33:01 84° ESE 00:38:43 10° NNE
Meteor 2-10 4.3 00:28:59 10° S 00:34:32 55° E 00:40:05 10° NNE
Cosmos 1626 3.1 00:33:35 10° NNW 00:36:56 47° W 00:40:16 10° SSW
SL-08 R/B 4.4 00:32:39 10° N 00:37:27 53° WNW 00:42:14 10° SSW
Cosmos 2322 4.2 00:32:28 10° S 00:37:40 38° ESE 00:42:54 10° NE
Cosmos 1933 Rocket 4.3 00:34:19 10° SSE 00:38:08 29° E 00:41:56 10° NNE
COSMOS 2428 3.5 00:33:31 10° SSE 00:38:17 29° ESE 00:43:05 10° NE
Cosmos 2228 Rocket 4.1 00:39:25 10° NNW 00:43:46 51° W 00:48:08 10° SSW
Okean 1-7 3.7 00:40:19 10° NNE 00:44:13 32° ENE 00:48:06 10° SE
Cosmos 1707 Rocket 3.9 00:40:11 10° NNW 00:44:37 70° W 00:49:02 10° S
IUS-9 SRM-1 4.5 00:44:23 10° SSE 00:45:04 10° SSE 00:45:48 10° SSE
Cosmos 1805 3.5 00:42:54 10° SSE 00:46:28 41° E 00:50:02 10° NNE
NOSS 2-3 (E) 3.2 00:43:55 10° SSW 00:47:37 87° WNW 00:51:34 10° NNE
NOSS 2-2 (E) 2.9 00:45:30 10° SSW 00:48:57 53° ESE 00:52:04 10° NE
NOSS 3-1 (C) 3.5 00:50:45 10° S 00:55:01 34° ESE 00:59:49 10° NE
Landsat 4 4.1 00:56:02 20° SE 00:58:02 36° ENE 01:01:22 10° N
Cosmos 2366 rocket 3.9 00:53:24 10° N 00:59:34 71° E 01:05:40 10° SSE
Okean O Rocket 2.6 00:58:25 22° ESE 00:59:56 27° ENE 01:03:41 10° NNE
SL-8 Rocket 4.0 00:53:45 10° N 01:00:02 84° E 01:06:20 10° S
Cosmos 2341 Rocket 4.2 00:59:06 10° N 01:05:22 79° W 01:11:42 10° S
YAOGAN 1 2.9 01:01:17 10° S 01:05:33 67° W 01:09:51 10° NNW
USA 81 4.0 01:00:46 10° S 01:06:01 86° E 01:11:18 10° N
Cosmos 1110 Rocket 3.9 01:01:13 10° NNW 01:06:26 85° ENE 01:11:39 10° SSE
NOSS 2-2 (D) 2.8 01:04:24 10° SSW 01:07:55 61° ESE 01:09:36 25° NE
Cosmos 1726 3.3 01:06:13 10° SSW 01:09:24 40° W 01:12:37 10° N
SL-14 R/B 3.4 01:06:13 10° N 01:10:02 48° E 01:11:45 28° SE
CZ-4B R/B 4.4 01:07:13 10° SSW 01:10:28 33° W 01:13:41 10° NNW
NOSS 2-2 (C) 2.7 01:07:06 10° SSW 01:10:37 64° ESE 01:12:10 27° NE
PSLV R/B 3.8 01:10:23 24° SE 01:12:25 55° ENE 01:16:13 10° N
Cosmos 1733 4.1 01:09:38 10° SSW 01:13:11 49° W 01:16:47 10° N
Resurs 01 Rocket 3.4 01:14:35 17° NE 01:14:35 17° NE 01:16:32 10° NNE
PAYLOAD B 4.2 01:09:48 10° SSE 01:15:23 89° WSW 01:20:59 10° NNW
Cosmos 2084 4.5 01:12:32 10° NW 01:16:07 39° WSW 01:19:44 10° S
USA 308 4.2 01:13:48 10° NNW 01:16:31 20° NNE 01:16:43 20° NE
Cosmos 1844 Rocket 3.8 01:11:53 10° NW 01:17:10 45° WSW 01:22:24 10° S
CZ-4C R/B 2.7 01:13:48 10° NNE 01:17:12 77° ESE 01:20:38 10° S
USA 186 4.0 01:19:39 14° NNE 01:19:39 14° NNE 01:20:12 10° NNE
Cosmos 1869 Rocket 3.8 01:13:47 10° SSE 01:17:57 43° E 01:22:06 10° NNE
Cosmos 2219 Rocket 2.7 01:14:41 10° SSW 01:20:11 62° WNW 01:25:45 10° NNE
Okean 3 3.7 01:19:24 10° NNW 01:23:29 66° W 01:27:33 10° S
CSL-04 Debris 4.5 01:23:33 33° ESE 01:25:28 45° ENE 01:30:38 10° N
Resurs 1-3 3.6 01:24:46 38° SE 01:26:11 59° ENE 01:30:28 10° N
Cosmos 2218 Rocket 4.2 01:21:48 10° NNW 01:27:54 70° W 01:34:00 10° S
Cosmos 1943 Rocket 4.3 01:27:26 10° NE 01:27:34 10° NE 01:27:34 10° NE
Okean-O 4.3 01:29:55 19° NE 01:29:55 19° NE 01:31:50 10° NNE
Okean 2 3.2 01:32:58 10° N 01:36:46 65° ENE 01:36:46 65° ENE
Cosmos 1302 Rocket 3.9 01:32:30 10° NNW 01:37:44 67° ENE 01:39:05 47° SE
CZ-4B R/B 3.2 01:34:38 12° S 01:39:37 76° WSW 01:44:56 10° NNW
Cosmos 1340 Rocket 3.7 01:35:55 10° NNW 01:39:50 50° W 01:43:01 15° SSW
SJ-6B 3.0 01:39:15 36° S 01:40:46 73° W 01:44:47 10° NNW
Cosmos 2242 Rocket 4.1 01:36:35 10° N 01:40:08 43° NE 01:40:08 43° NE
ATLAS 3B R/B 2.7 01:36:28 10° SSW 01:43:13 89° ESE 01:50:33 10° NNE
Landsat 7 4.2 01:39:44 13° S 01:43:48 62° W 01:48:29 10° NNW
CSL-04 Rocket 3.5 01:46:33 57° ESE 01:47:17 64° ENE 01:52:30 10° N
COSMOS 2455 3.3 01:43:23 10° NNW 01:49:01 40° NE 01:49:11 40° ENE
SL-08 R/B 4.3 01:47:55 10° N 01:54:05 80° E 01:56:22 41° SSE
Cosmos 2278 Rocket 3.1 01:50:49 10° N 01:55:06 33° NE 01:55:06 33° NE
Cosmos 1241 Rocket 4.3 01:52:01 10° NNW 01:58:17 78° ENE 01:59:20 62° SE
NOSS 0 Rocket 3.8 01:56:44 10° SSW 02:02:54 85° ESE 02:09:09 10° NNE
SPOT 1/Viking Rocket 3.4 02:03:14 82° SSE 02:03:29 89° E 02:08:39 10° NNW
CZ-4 R/B 3.4 02:03:19 15° SW 02:05:41 26° W 02:08:56 10° NW
Milstar 3 Cent rocket 3.4 01:55:58 10° WSW 02:06:58 45° S 02:08:15 41° SSE
Cosmos 614 Rocket 4.2 02:03:21 10° SSW 02:08:22 66° WNW 02:13:25 10° NNE
USA 215 3.7 02:02:21 10° NE 02:08:45 59° NW 02:15:07 10° WSW
Cosmos 1339 Rocket 4.4 02:09:55 67° ENE 02:09:55 67° ENE 02:15:45 10° NNE
ADEOS Rocket 3.4 02:15:33 53° SSE 02:17:41 83° ENE 02:25:18 10° NNW
COSMOS 2428 4.1 02:17:10 10° SW 02:22:21 36° WNW 02:27:34 10° N
Cosmos 1934 Rocket 4.1 02:20:14 10° N 02:25:45 68° NNE 02:25:45 68° NNE
Okean O Rocket 3.6 02:35:49 24° WSW 02:36:10 24° W 02:39:47 10° NW
USA 267 3.8 02:41:19 47° NNE 02:41:19 47° NNE 02:46:51 10° NW
Resurs 01 Rocket 4.0 02:52:06 21° NW 02:52:06 21° NW 02:53:50 10° NNW
Cosmos 1943 Rocket 4.2 03:07:09 10° NNW 03:09:05 22° NNW 03:09:05 22° NNW
SL-16 R/B 4.0 08:27:30 10° N 08:32:20 28° ENE 08:37:09 10° ESE
ATLAS 2AS CENTAUR R/B 2.9 08:55:38 78° NNE 08:55:38 78° NNE 09:02:26 10° NNE
USA 215 3.7 08:49:08 10° ESE 08:55:30 56° NE 08:57:55 37° NNW
USA 281 4.4 08:49:48 10° N 08:53:32 31° NNW 08:53:32 31° NNW
Cosmos 2322 Rocket 4.0 08:51:27 10° N 08:56:20 29° ENE 09:01:11 10° ESE
ATLAS CENTAUR R/B 3.5 09:00:09 57° N 09:00:09 57° N 09:09:04 10° NE
ADEOS II 4.4 09:08:08 10° N 09:08:47 13° NNW 09:08:47 13° NNW
Cosmos 2266 Rocket 4.0 09:21:30 64° SSE 09:22:31 79° E 09:28:53 10° N
Cosmos 2360 Rocket 3.7 09:20:16 10° N 09:25:28 35° ENE 09:30:38 10° SE
Cosmos 2333 Rocket 4.0 09:24:44 10° N 09:29:45 30° ENE 09:34:44 10° ESE
Cosmos 2082 Rocket 4.4 09:31:57 13° NNW 09:31:57 13° NNW 09:33:13 10° NNW
Intelsat 5-1 Rocket 4.4 09:31:19 20° SSE 09:31:23 20° SSE 09:37:07 10° ESE
CZ-2C R/B 2.6 09:28:40 10° NNE 09:32:46 64° NNE 09:32:46 64° NNE
PAYLOAD A 3.8 09:35:23 10° NNE 09:40:14 89° ESE 09:40:17 88° S
ALOS 4.2 09:38:24 10° N 09:39:45 18° NNW 09:39:45 18° NNW
Meteor 2-12 Rocket 4.4 09:42:51 33° S 09:45:50 89° E 09:52:02 10° N
Cosmos 1655 Rocket 3.9 09:45:06 33° S 09:48:16 84° W 09:54:42 10° N
Hubble Space Telescope 3.0 09:51:51 14° SSE 09:51:51 14° SSE 09:52:55 10° SE
Meteor 1-5 Rocket 4.2 09:44:25 10° N 09:50:06 81° E 09:55:32 10° S
Cosmos 1833 4.1 09:56:02 45° SSW 09:57:50 81° WNW 10:03:29 10° NNE
OAO 2 Rocket 3.3 09:59:04 55° SSW 09:59:42 60° S 10:04:31 10° E
YAOGAN 6 4.3 09:56:28 10° N 09:57:50 22° N 09:57:50 22° N
OAO 3 Copernicus 4.5 10:00:36 50° SSW 10:01:24 57° S 10:06:20 10° E
USA 276 3.8 10:04:40 25° E 10:04:40 25° E 10:06:01 10° ESE
IRS-1D 4.1 10:01:00 10° N 10:05:45 37° WNW 10:05:45 37° WNW
CZ-2C R/B 4.2 10:02:50 10° N 10:07:28 30° WNW 10:07:28 30° WNW
H-2A R/B 4.2 10:05:22 10° NNE 10:08:35 33° E 10:11:45 10° SSE
BREEZE-M DEB (TANK) 4.0 10:06:53 36° SW 10:08:54 76° SE 10:23:15 10° NE
NOSS 2-2 (E) 4.3 10:04:06 13° NW 10:08:57 77° WSW 10:16:28 10° SSE
DELTA 2 R/B (1) 3.5 10:07:17 40° WNW 10:09:21 88° NNE 10:14:56 10° ESE
Cosmos 1378 3.8 10:09:35 11° S 10:12:49 51° E 10:16:15 10° NNE
SL-4 R/B 3.1 10:12:27 20° NNW 10:14:08 33° NNE 10:17:13 10° E
Cosmos 1743 4.2 10:11:15 10° N 10:14:46 37° E 10:18:14 10° SSE
Cosmos 2219 Rocket 3.4 10:10:06 10° N 10:15:29 43° ENE 10:20:51 10° SE
CZ-2C R/B 1.0 10:16:28 50° SSE 10:16:28 50° SSE 10:19:16 10° ESE
SL-16 R/B 2.6 10:11:16 10° NW 10:16:29 38° WSW 10:21:39 10° S
DMSP B5D2-2 4.4 10:13:00 10° SSE 10:18:11 70° ENE 10:23:26 10° N
NOSS 3-1 (C) 4.4 10:12:14 10° NNW 10:19:58 75° ENE 10:29:04 10° SE
Okean 3 Rocket 3.7 10:19:48 10° NNW 10:24:08 51° W 10:28:24 10° S
NOSS 2-2 (D) 4.3 10:22:48 10° NW 10:28:00 72° WSW 10:35:24 10° SSE
Cosmos 494 Rocket 3.9 10:23:51 10° NNW 10:29:01 86° ENE 10:34:07 10° SSE
NOSS 2-2 (C) 4.3 10:25:36 10° NW 10:30:47 70° WSW 10:38:10 10° SSE
Cosmos 1484 Rocket 2.6 10:27:42 10° N 10:31:16 56° WNW 10:33:15 24° SW
Lacrosse 5 rocket 1.2 10:29:42 29° SW 10:31:42 82° NW 10:35:40 10° NE
Cosmos 1842 Rocket 4.2 10:33:00 28° WSW 10:34:23 35° WNW 10:38:30 10° NNW
Cosmos 2084 Rocket 4.0 10:35:51 29° W 10:37:09 36° NW 10:40:53 10° NNE
GP-B 3.0 10:33:32 10° S 10:37:54 61° W 10:42:17 10° N
Envisat 3.9 10:33:56 10° N 10:38:13 28° WNW 10:40:02 22° WSW
Cosmos 1125 Rocket 3.4 10:33:04 10° SSW 10:38:17 83° WNW 10:43:32 10° NNE
USA 215 3.7 10:32:33 10° SSE 10:38:35 39° SW 10:44:39 10° WNW
Cosmos 2221 4.4 10:40:13 14° NW 10:40:13 14° NW 10:41:40 10° NW
Helios 1A 2.9 10:35:05 10° SSE 10:39:11 89° E 10:43:19 10° NNW
Cosmos 2322 Rocket 2.6 10:35:14 10° NW 10:40:23 37° WSW 10:45:32 10° S
Cosmos 1048 Rocket 3.9 10:36:58 10° NNW 10:42:16 87° WSW 10:47:27 10° SSE
ATLAS 2AS CENTAUR R/B 4.1 10:43:05 16° WNW 10:46:52 23° NW 10:52:25 10° N
Delta 2 Rocket 4.0 10:43:36 21° WSW 10:47:02 67° S 10:52:16 10° E
Cosmos 1244 Rocket 4.4 10:41:47 10° SSW 10:47:54 67° W 10:54:10 10° N
Cosmos 2315 Rocket 4.5 10:43:00 10° NNW 10:48:47 38° W 10:54:33 10° SSW
Meteor 1-27 Rocket 4.2 10:43:57 10° S 10:49:25 65° E 10:54:59 10° NNE
ERS-2 1.7 10:46:37 10° NNE 10:49:47 87° E 10:52:56 10° SSW
Cosmos 2298 Rocket 4.0 10:46:21 10° SSW 10:51:38 89° E 10:56:57 10° NNE
IRS-1C 4.1 10:50:01 10° N 10:55:18 65° WNW 11:00:33 10° SSW
Cosmos 1271 Rocket 2.5 10:55:34 10° NNW 10:59:18 75° W 11:02:58 10° S
Cosmos 1743 Rocket 3.4 10:57:42 10° NNW 11:02:00 68° W 11:06:18 10° S
Cosmos 1151 Rocket 3.0 10:58:23 10° S 11:02:42 90° N 11:07:05 10° N
Cosmos 2297 Rocket 3.6 10:58:32 10° S 11:03:46 41° ESE 11:09:02 10° NE
Meteor 1-11 Rocket 3.9 10:58:26 10° N 11:04:19 88° E 11:10:16 10° S
Cosmos 1805 Rocket 3.5 11:01:37 10° NNW 11:05:54 65° W 11:10:11 10° S
Cosmos 2150 Rocket 4.0 11:02:11 10° SSW 11:07:32 68° WNW 11:12:51 10° NNE
ATLAS 3B R/B 3.0 11:01:18 10° NW 11:08:58 64° WSW 11:16:32 10° SSE
Cosmos 2360 Rocket 3.0 11:04:27 10° NW 11:09:17 29° WSW 11:14:06 10° SSW
SL-27 R/B 3.9 11:09:00 13° W 11:10:17 16° WNW 11:12:19 10° NNW
ARIANE 5 R/B 2.8 11:08:34 10° N 11:13:22 46° WNW 11:18:06 10° SW
Cosmos 2333 Rocket 2.8 11:08:49 10° NW 11:14:00 36° WSW 11:19:10 10° S
SKYMED 2 3.8 11:09:48 10° SSE 11:14:07 75° ENE 11:18:28 10° N
Cosmos 1939 Rocket 2.8 11:10:33 10° N 11:14:19 59° WNW 11:18:07 10° SSW
Cosmos 2237 Rocket 4.4 11:11:08 10° N 11:16:00 28° ENE 11:20:48 10° ESE
Cosmos 2322 3.7 11:12:30 10° NNW 11:18:14 83° WSW 11:23:53 10° SSE
Cosmos 1633 Rocket 4.5 11:14:11 10° N 11:18:24 44° E 11:22:35 10° SSE
COSMOS 2428 2.9 11:13:25 10° NNW 11:19:08 79° ENE 11:24:49 10° SSE
Meteor 2-20 4.5 11:14:10 10° N 11:20:22 86° W 11:26:30 10° S
H-2A R/B 2.2 11:15:03 10° N 11:20:27 66° WNW 11:25:48 10° SSW
NOSS 3-1 (A) 4.3 11:21:31 10° NW 11:29:21 79° WSW 11:38:31 10° SSE
